Location: Zihuatanejo
(17.6330°N, 101.5500°W)
Time: 22:03:52
(UTC-05:00)

Tiangong 2 - Pass Details

Date: 26 March 2019
Orbit: 378 x 389 km, 42.8° (Epoch: 19 April)

Event Time Altitude Azimuth Distance (km) Brightness Sun altitude
Exits shadow 06:44:40 21° 318° (NW) 912 2.6 -15.3°
Maximum altitude 06:46:35 75° 41° (NE) 397 1.2 -14.9°
Drops below altitude 10° 06:49:44 10° 128° (SE) 1,395 4.6 -14.1°
Sets 06:51:48 0° 129° (SE) 2,249 5.6 -13.6°
